EW1071 Weather Reports


Display with metric or nautical units.
time (UTC)temp
F
wind
direction
speed
MPH
gust
MPH
rain 1hr
in
rain 24hr
in
rain mn
in
humidity
%
barometer
mb
20260831103013 55 119 0.0 6.0 0.00 0.07 0.07 92 1018.3
20260831101515 55 118 1.0 9.0 0.00 0.07 0.07 92 1018.4
20260831100014 55 117 0.0 8.0 0.00 0.07 0.07 93 1018.4
20260831094518 55 115 0.0 0.0 0.00 0.07 0.07 94 1018.6
20260831093010 53 133 1.0 8.0 0.00 0.07 0.07 95 1018.8
20260831091510 53 34 1.0 6.0 0.00 0.07 0.07 95 1019.0
20260831090014 53 355 0.0 4.0 0.00 0.07 0.07 95 1019.2
20260831084513 53 292 1.0 9.0 0.00 0.07 0.07 95 1019.4
20260831083009 53 287 0.0 7.0 0.00 0.07 0.07 95 1019.5
20260831081517 52 290 0.0 4.0 0.00 0.07 0.07 95 1019.6
20260831080005 52 290 0.0 10.0 0.00 0.07 0.07 95 1019.6
20260831074545 52 230 0.0 4.0 0.00 0.07 0.07 95 1019.5
20260831073109 52 229 0.0 6.0 0.00 0.07 0.07 95 1019.5
20260831071539 52 229 0.0 6.0 0.00 0.07 0.07 95 1019.6
20260831070040 51 230 2.0 7.0 0.00 0.07 0.07 95 1019.4
20260831064540 51 227 1.0 6.0 0.00 0.07 0.07 95 1019.2
20260831063036 51 223 0.0 5.0 0.00 0.07 0.07 95 1019.1
20260831061538 51 223 0.0 7.0 0.00 0.07 0.07 95 1019.0
20260831060031 51 223 1.0 6.0 0.00 0.07 0.07 95 1018.8
20260831054529 51 219 1.0 5.0 0.01 0.07 0.07 95 1018.6
20260831053034 51 219 0.0 4.0 0.01 0.07 0.07 95 1018.3
20260831051528 52 220 1.0 6.0 0.01 0.07 0.07 95 1018.1
20260831050038 51 220 1.0 6.0 0.01 0.07 0.07 95 1017.8
20260831044501 51 215 0.0 2.0 0.00 0.06 0.06 95 1017.5
20260831043101 51 215 0.0 5.0 0.01 0.06 0.06 95 1017.5
20260831041604 51 216 2.0 10.0 0.01 0.06 0.06 95 1017.4
20260831040058 52 111 1.0 6.0 0.02 0.06 0.06 95 1017.2
20260831034556 52 111 0.0 3.0 0.02 0.06 0.06 94 1016.8
20260831033056 52 111 0.0 4.0 0.01 0.05 0.05 95 1016.8
20260831031555 52 111 0.0 1.0 0.02 0.05 0.05 94 1016.6
20260831030058 52 111 0.0 3.0 0.01 0.04 0.04 94 1016.4
20260831024555 52 111 0.0 3.0 0.01 0.04 0.04 94 1016.2
20260831023024 53 111 0.0 4.0 0.02 0.04 0.04 94 1016.0
20260831021522 53 111 0.0 7.0 0.01 0.03 0.03 94 1016.1
20260831020021 54 111 1.0 8.0 0.01 0.03 0.03 94 1015.9
20260831014518 54 108 0.0 4.0 0.02 0.03 0.03 93 1015.7
20260831013018 54 108 0.0 2.0 0.01 0.02 0.02 93 1015.7
20260831011521 54 108 0.0 8.0 0.01 0.02 0.02 93 1015.8
20260831010015 54 108 1.0 8.0 0.02 0.02 0.02 92 1015.9
20260831004518 55 107 0.0 1.0 0.01 0.01 0.01 93 1016.1
20260831003016 55 107 0.0 6.0 0.01 0.01 0.01 92 1016.1
20260831001511 55 106 3.0 10.0 0.01 0.01 0.01 92 1016.2
20260831000010 55 116 3.0 10.0 0.00 0.00 0.00 91 1016.2
20260830234509 55 117 1.0 3.0 0.00 0.00 0.00 91 1016.3
20260830233014 55 117 0.0 7.0 0.00 0.00 0.00 90 1016.6
20260830231503 56 117 0.0 1.0 0.00 0.00 0.00 89 1016.7
20260830230001 56 117 0.0 2.0 0.00 0.00 0.00 88 1016.9
20260830224606 56 117 1.0 8.0 0.00 0.00 0.00 87 1017.0
20260830223100 56 117 0.0 2.0 0.00 0.00 0.00 87 1017.0
20260830221559 56 117 0.0 9.0 0.00 0.00 0.00 87 1017.2
20260830220103 56 117 1.0 9.0 0.00 0.00 0.00 86 1017.5
20260830214558 56 118 5.0 16.0 0.00 0.00 0.00 86 1017.7
20260830213054 56 113 12.0 28.0 0.00 0.00 0.00 86 1017.7
20260830211553 56 111 10.0 17.0 0.00 0.00 0.00 86 1017.5
20260830210048 56 111 8.0 18.0 0.00 0.00 0.00 85 1018.1
20260830204556 56 123 9.0 17.0 0.00 0.00 0.00 85 1018.3
20260830203046 56 99 10.0 18.0 0.00 0.00 0.00 85 1018.4
20260830201556 56 99 8.0 18.0 0.00 0.00 0.00 86 1018.3
20260830200048 56 107 7.0 20.0 0.00 0.00 0.00 86 1018.5
20260830194546 56 107 10.0 16.0 0.00 0.00 0.00 85 1018.3
20260830193044 56 93 9.0 21.0 0.00 0.00 0.00 84 1018.4
20260830191615 56 121 8.0 20.0 0.00 0.00 0.00 84 1018.1
20260830190054 57 110 9.0 25.0 0.00 0.00 0.00 83 1018.2
20260830184543 57 109 9.0 18.0 0.00 0.00 0.00 83 1018.1
20260830183040 56 114 8.0 18.0 0.00 0.00 0.00 84 1017.9
20260830181542 57 123 8.0 23.0 0.00 0.00 0.00 84 1017.8
20260830180043 57 112 9.0 24.0 0.00 0.00 0.00 83 1017.7
20260830174539 57 92 9.0 20.0 0.00 0.00 0.00 83 1017.5
20260830173046 57 103 7.0 17.0 0.00 0.00 0.00 83 1017.4
20260830171538 58 117 8.0 15.0 0.00 0.00 0.00 82 1017.4
20260830170038 58 114 9.0 25.0 0.00 0.00 0.00 81 1017.0
20260830164537 58 127 10.0 23.0 0.00 0.00 0.00 81 1017.0
20260830163041 58 95 9.0 27.0 0.00 0.00 0.00 81 1016.7
20260830161541 58 137 13.0 23.0 0.00 0.00 0.00 80 1016.6
20260830160040 59 115 7.0 19.0 0.00 0.00 0.00 78 1016.4
20260830154539 59 113 7.0 20.0 0.00 0.00 0.00 77 1016.4
20260830153035 60 126 7.0 20.0 0.00 0.00 0.00 76 1016.4
20260830151533 61 104 6.0 18.0 0.00 0.00 0.00 74 1016.2
20260830150039 62 111 5.0 21.0 0.00 0.00 0.00 71 1016.1
20260830144531 64 105 2.0 13.0 0.00 0.00 0.00 67 1015.9
20260830143031 65 102 2.0 13.0 0.00 0.00 0.00 61 1016.1
20260830141530 66 118 1.0 10.0 0.00 0.00 0.00 60 1016.0
20260830140029 66 172 1.0 10.0 0.00 0.00 0.00 55 1016.0
20260830134529 67 228 0.0 9.0 0.00 0.00 0.00 54 1016.0
20260830133029 67 194 1.0 12.0 0.00 0.00 0.00 53 1015.8
20260830131544 67 199 0.0 11.0 0.00 0.00 0.00 54 1015.8
20260830130029 67 182 0.0 11.0 0.00 0.00 0.00 53 1015.7
20260830124526 68 104 3.0 12.0 0.00 0.00 0.00 53 1016.0
20260830123028 66 128 0.0 17.0 0.00 0.00 0.00 54 1015.8
20260830121523 67 233 0.0 17.0 0.00 0.00 0.00 53 1015.9
20260830120022 68 117 2.0 12.0 0.00 0.00 0.00 53 1016.4
20260830114526 67 85 1.0 14.0 0.00 0.00 0.00 52 1016.4
20260830113023 68 195 1.0 12.0 0.00 0.00 0.00 51 1016.5
20260830111527 66 317 0.0 14.0 0.00 0.00 0.00 55 1016.9
20260830110019 66 188 3.0 12.0 0.00 0.00 0.00 54 1017.0
20260830104521 66 274 2.0 10.0 0.00 0.00 0.00 55 1017.2